| time (UTC) | temp F | wind direction | speed MPH | gust MPH | rain 1hr in | rain 24hr in | rain mn in | humidity % | barometer mb |
| 20260506024122 | 61 | 226 | 4.0 | 8.0 | 0.00 | 0.00 | 0.00 | 88 | 1009.2 |
| 20260506023143 | 61 | 233 | 4.0 | 7.0 | 0.00 | 0.00 | 0.00 | 87 | 1009.2 |
| 20260506022122 | 61 | 239 | 3.0 | 7.0 | 0.00 | 0.00 | 0.00 | 86 | 1009.1 |
| 20260506021143 | 62 | 215 | 4.0 | 6.0 | 0.00 | 0.00 | 0.00 | 85 | 1009.2 |
| 20260506020123 | 62 | 216 | 4.0 | 7.0 | 0.00 | 0.00 | 0.00 | 84 | 1009.2 |
| 20260506015123 | 63 | 220 | 5.0 | 11.0 | 0.00 | 0.00 | 0.00 | 83 | 1009.1 |
| 20260506014123 | 63 | 251 | 4.0 | 9.0 | 0.00 | 0.00 | 0.00 | 81 | 1008.9 |
| 20260506013123 | 64 | 214 | 4.0 | 10.0 | 0.00 | 0.00 | 0.00 | 80 | 1008.9 |
| 20260506012122 | 64 | 222 | 4.0 | 6.0 | 0.00 | 0.00 | 0.00 | 80 | 1008.7 |
| 20260506011122 | 64 | 207 | 4.0 | 7.0 | 0.00 | 0.00 | 0.00 | 80 | 1008.6 |
| 20260506010121 | 64 | 271 | 4.0 | 8.0 | 0.00 | 0.00 | 0.00 | 80 | 1008.6 |
| 20260506005122 | 64 | 224 | 5.0 | 9.0 | 0.00 | 0.00 | 0.00 | 79 | 1008.5 |
| 20260506004124 | 65 | 236 | 5.0 | 9.0 | 0.00 | 0.00 | 0.00 | 78 | 1008.2 |
| 20260506003124 | 65 | 236 | 4.0 | 7.0 | 0.00 | 0.00 | 0.00 | 77 | 1008.2 |
| 20260506002121 | 66 | 213 | 4.0 | 10.0 | 0.00 | 0.00 | 0.00 | 77 | 1008.1 |
| 20260506001121 | 66 | 231 | 6.0 | 9.0 | 0.00 | 0.00 | 0.00 | 77 | 1007.9 |
| 20260506000122 | 66 | 297 | 5.0 | 12.0 | 0.00 | 0.00 | 0.00 | 77 | 1007.9 |
| 20260505235143 | 66 | 268 | 6.0 | 11.0 | 0.00 | 0.00 | 0.00 | 77 | 1007.7 |
| 20260505234209 | 66 | 238 | 6.0 | 15.0 | 0.00 | 0.00 | 0.00 | 76 | 1007.5 |
| 20260505234142 | 66 | 236 | 6.0 | 15.0 | 0.00 | 0.00 | 0.00 | 76 | 1007.5 |
| 20260505233125 | 66 | 250 | 5.0 | 8.0 | 0.00 | 0.00 | 0.00 | 76 | 1007.2 |
| 20260505232125 | 66 | 244 | 5.0 | 10.0 | 0.00 | 0.00 | 0.00 | 76 | 1007.2 |
| 20260505231125 | 66 | 240 | 5.0 | 10.0 | 0.00 | 0.00 | 0.00 | 76 | 1007.2 |
| 20260505230121 | 66 | 225 | 6.0 | 17.0 | 0.00 | 0.00 | 0.00 | 76 | 1007.0 |
| 20260505225142 | 66 | 256 | 5.0 | 10.0 | 0.00 | 0.00 | 0.00 | 75 | 1007.0 |
| 20260505224124 | 67 | 264 | 5.0 | 10.0 | 0.00 | 0.00 | 0.00 | 74 | 1007.1 |
| 20260505223143 | 67 | 230 | 6.0 | 11.0 | 0.00 | 0.00 | 0.00 | 74 | 1007.0 |
| 20260505222144 | 68 | 233 | 6.0 | 8.0 | 0.00 | 0.00 | 0.00 | 73 | 1006.8 |
| 20260505221125 | 68 | 252 | 7.0 | 11.0 | 0.00 | 0.00 | 0.00 | 73 | 1006.9 |
| 20260505220126 | 69 | 237 | 7.0 | 11.0 | 0.00 | 0.00 | 0.00 | 71 | 1006.8 |
| 20260505215122 | 69 | 241 | 5.0 | 9.0 | 0.00 | 0.00 | 0.00 | 70 | 1006.8 |
| 20260505214122 | 70 | 267 | 6.0 | 11.0 | 0.00 | 0.00 | 0.00 | 71 | 1006.8 |
| 20260505213123 | 70 | 233 | 7.0 | 12.0 | 0.00 | 0.00 | 0.00 | 70 | 1006.8 |
| 20260505212121 | 72 | 263 | 8.0 | 15.0 | 0.00 | 0.00 | 0.00 | 65 | 1006.6 |
| 20260505211142 | 73 | 234 | 5.0 | 9.0 | 0.00 | 0.00 | 0.00 | 64 | 1006.5 |
| 20260505210122 | 73 | 249 | 7.0 | 10.0 | 0.00 | 0.00 | 0.00 | 65 | 1006.5 |
| 20260505205121 | 74 | 245 | 5.0 | 10.0 | 0.00 | 0.00 | 0.00 | 63 | 1006.6 |
| 20260505204121 | 73 | 253 | 7.0 | 13.0 | 0.00 | 0.00 | 0.00 | 64 | 1006.7 |
| 20260505203121 | 75 | 247 | 5.0 | 9.0 | 0.00 | 0.00 | 0.00 | 62 | 1006.6 |
| 20260505202142 | 75 | 240 | 5.0 | 9.0 | 0.00 | 0.00 | 0.00 | 63 | 1006.8 |
| 20260505201121 | 73 | 251 | 6.0 | 11.0 | 0.00 | 0.00 | 0.00 | 64 | 1006.8 |
| 20260505200122 | 74 | 258 | 7.0 | 11.0 | 0.00 | 0.00 | 0.00 | 63 | 1006.8 |
| 20260505195143 | 76 | 257 | 5.0 | 9.0 | 0.00 | 0.00 | 0.00 | 61 | 1007.0 |
| 20260505194121 | 76 | 264 | 6.0 | 12.0 | 0.00 | 0.00 | 0.00 | 61 | 1007.2 |
| 20260505193121 | 76 | 24 | 6.0 | 12.0 | 0.00 | 0.00 | 0.00 | 61 | 1007.2 |
| 20260505192123 | 76 | 245 | 7.0 | 12.0 | 0.00 | 0.00 | 0.00 | 61 | 1007.6 |
| 20260505191142 | 76 | 267 | 5.0 | 10.0 | 0.00 | 0.00 | 0.00 | 61 | 1008.0 |
| 20260505190143 | 76 | 261 | 6.0 | 9.0 | 0.00 | 0.00 | 0.00 | 61 | 1008.0 |
| 20260505185123 | 76 | 205 | 6.0 | 11.0 | 0.00 | 0.00 | 0.00 | 62 | 1008.0 |
| 20260505184143 | 77 | 196 | 3.0 | 6.0 | 0.00 | 0.00 | 0.00 | 60 | 1008.2 |
| 20260505183121 | 76 | 262 | 4.0 | 7.0 | 0.00 | 0.00 | 0.00 | 62 | 1008.2 |
| 20260505182124 | 75 | 217 | 4.0 | 8.0 | 0.00 | 0.00 | 0.00 | 64 | 1008.4 |
| 20260505181122 | 74 | 183 | 5.0 | 9.0 | 0.00 | 0.00 | 0.00 | 65 | 1008.5 |
| 20260505180143 | 75 | 278 | 5.0 | 11.0 | 0.00 | 0.00 | 0.00 | 63 | 1008.4 |
| 20260505175122 | 75 | 241 | 5.0 | 7.0 | 0.00 | 0.00 | 0.00 | 64 | 1008.4 |
| 20260505174122 | 75 | 262 | 5.0 | 12.0 | 0.00 | 0.00 | 0.00 | 64 | 1008.7 |
| 20260505173123 | 76 | 256 | 4.0 | 9.0 | 0.00 | 0.00 | 0.00 | 63 | 1008.6 |
| 20260505172121 | 76 | 261 | 4.0 | 7.0 | 0.00 | 0.00 | 0.00 | 63 | 1008.6 |
| 20260505171122 | 76 | 227 | 4.0 | 8.0 | 0.00 | 0.00 | 0.00 | 64 | 1008.8 |
| 20260505170144 | 78 | 257 | 5.0 | 8.0 | 0.00 | 0.00 | 0.00 | 60 | 1008.8 |
| 20260505165143 | 78 | 215 | 4.0 | 9.0 | 0.00 | 0.00 | 0.00 | 60 | 1008.7 |
| 20260505164144 | 79 | 211 | 3.0 | 6.0 | 0.00 | 0.00 | 0.00 | 60 | 1008.8 |
| 20260505163125 | 78 | 202 | 3.0 | 6.0 | 0.00 | 0.00 | 0.00 | 60 | 1009.0 |
| 20260505162121 | 77 | 210 | 4.0 | 5.0 | 0.00 | 0.00 | 0.00 | 62 | 1009.1 |
| 20260505161121 | 77 | 147 | 4.0 | 6.0 | 0.00 | 0.00 | 0.00 | 62 | 1009.2 |
| 20260505160143 | 76 | 118 | 3.0 | 5.0 | 0.00 | 0.00 | 0.00 | 64 | 1009.2 |
| 20260505153122 | 74 | 205 | 3.0 | 5.0 | 0.00 | 0.00 | 0.00 | 66 | 1009.6 |
| 20260505152125 | 74 | 105 | 4.0 | 7.0 | 0.00 | 0.00 | 0.00 | 67 | 1009.6 |
| 20260505151121 | 74 | 194 | 3.0 | 6.0 | 0.00 | 0.00 | 0.00 | 66 | 1009.8 |
| 20260505150121 | 74 | 260 | 4.0 | 7.0 | 0.00 | 0.00 | 0.00 | 64 | 1009.8 |
| 20260505140122 | 71 | 251 | 4.0 | 7.0 | 0.00 | 0.00 | 0.00 | 68 | 1009.7 |
| 20260505130121 | 68 | 268 | 4.0 | 8.0 | 0.00 | 0.00 | 0.00 | 73 | 1009.5 |
| 20260505124121 | 67 | 214 | 3.0 | 6.0 | 0.00 | 0.00 | 0.00 | 76 | 1009.4 |
| 20260505123122 | 66 | 246 | 3.0 | 5.0 | 0.00 | 0.00 | 0.00 | 79 | 1009.2 |
| 20260505122121 | 64 | 235 | 2.0 | 4.0 | 0.00 | 0.00 | 0.00 | 83 | 1009.4 |
| 20260505121122 | 62 | 249 | 2.0 | 3.0 | 0.00 | 0.00 | 0.00 | 88 | 1009.4 |
| 20260505120142 | 62 | 197 | 1.0 | 2.0 | 0.00 | 0.00 | 0.00 | 88 | 1009.4 |
| 20260505115121 | 60 | 140 | 1.0 | 2.0 | 0.00 | 0.00 | 0.00 | 90 | 1009.7 |
| 20260505114121 | 60 | 169 | 1.0 | 2.0 | 0.00 | 0.00 | 0.00 | 92 | 1009.7 |
| 20260505113144 | 59 | 161 | 0.0 | 2.0 | 0.00 | 0.00 | 0.00 | 94 | 1009.5 |
| 20260505112142 | 58 | 136 | 0.0 | 2.0 | 0.00 | 0.00 | 0.00 | 95 | 1009.6 |
| 20260505111121 | 58 | 248 | 0.0 | 0.0 | 0.00 | 0.00 | 0.00 | 96 | 1009.6 |
| 20260505110122 | 55 | 173 | 1.0 | 3.0 | 0.00 | 0.00 | 0.00 | 99 | 1009.6 |
| 20260505102123 | 50 | 225 | 0.0 | 2.0 | 0.00 | 0.00 | 0.00 | 99 | 1009.1 |
| 20260505101122 | 50 | 166 | 0.0 | 2.0 | 0.00 | 0.00 | 0.00 | 99 | 1009.0 |
| 20260505100122 | 50 | 224 | 0.0 | 2.0 | 0.00 | 0.00 | 0.00 | 99 | 1009.0 |
| 20260505095122 | 50 | 108 | 0.0 | 2.0 | 0.00 | 0.00 | 0.00 | 99 | 1008.6 |
| 20260505094124 | 50 | 113 | 0.0 | 0.0 | 0.00 | 0.00 | 0.00 | 99 | 1008.7 |
| 20260505093123 | 50 | 158 | 0.0 | 0.0 | 0.00 | 0.00 | 0.00 | 99 | 1008.8 |
| 20260505092121 | 50 | 161 | 0.0 | 2.0 | 0.00 | 0.00 | 0.00 | 99 | 1008.7 |
| 20260505091142 | 51 | 113 | 0.0 | 0.0 | 0.00 | 0.00 | 0.00 | 99 | 1008.8 |
| 20260505090121 | 51 | 180 | 0.0 | 0.0 | 0.00 | 0.00 | 0.00 | 99 | 1008.8 |
| 20260505085121 | 51 | 243 | 1.0 | 2.0 | 0.00 | 0.00 | 0.00 | 99 | 1008.7 |
| 20260505084121 | 51 | 153 | 1.0 | 2.0 | 0.00 | 0.00 | 0.00 | 99 | 1008.6 |
| 20260505083121 | 52 | 176 | 0.0 | 3.0 | 0.00 | 0.00 | 0.00 | 99 | 1008.7 |
| 20260505082121 | 52 | 209 | 0.0 | 2.0 | 0.00 | 0.00 | 0.00 | 99 | 1008.7 |
| 20260505081121 | 52 | 223 | 1.0 | 3.0 | 0.00 | 0.00 | 0.00 | 99 | 1008.7 |
| 20260505080142 | 52 | 247 | 0.0 | 2.0 | 0.00 | 0.00 | 0.00 | 99 | 1008.7 |
| 20260505075121 | 52 | 242 | 1.0 | 2.0 | 0.00 | 0.00 | 0.00 | 99 | 1008.6 |
| 20260505074121 | 53 | 214 | 1.0 | 3.0 | 0.00 | 0.00 | 0.00 | 99 | 1008.6 |
| 20260505073121 | 53 | 227 | 2.0 | 3.0 | 0.00 | 0.00 | 0.00 | 99 | 1008.6 |
| 20260505072122 | 53 | 209 | 2.0 | 3.0 | 0.00 | 0.00 | 0.00 | 99 | 1008.6 |
| 20260505071123 | 53 | 172 | 2.0 | 4.0 | 0.00 | 0.00 | 0.00 | 99 | 1008.6 |
| 20260505070122 | 53 | 182 | 2.0 | 6.0 | 0.00 | 0.00 | 0.00 | 99 | 1008.6 |
| 20260505065122 | 53 | 253 | 2.0 | 5.0 | 0.00 | 0.00 | 0.00 | 99 | 1008.6 |
| 20260505064122 | 53 | 202 | 2.0 | 4.0 | 0.00 | 0.00 | 0.00 | 99 | 1008.6 |
| 20260505063123 | 53 | 202 | 1.0 | 3.0 | 0.00 | 0.00 | 0.00 | 99 | 1008.8 |
| 20260505062122 | 53 | 215 | 2.0 | 3.0 | 0.00 | 0.00 | 0.00 | 99 | 1008.8 |
| 20260505061122 | 53 | 202 | 2.0 | 4.0 | 0.00 | 0.00 | 0.00 | 99 | 1008.9 |
| 20260505060123 | 53 | 149 | 1.0 | 3.0 | 0.00 | 0.00 | 0.00 | 99 | 1008.9 |
| 20260505055143 | 53 | 178 | 1.0 | 4.0 | 0.00 | 0.00 | 0.00 | 99 | 1008.9 |
| 20260505054122 | 54 | 198 | 2.0 | 4.0 | 0.00 | 0.00 | 0.00 | 99 | 1009.0 |
| 20260505053122 | 54 | 225 | 2.0 | 3.0 | 0.00 | 0.00 | 0.00 | 99 | 1009.1 |
| 20260505052122 | 54 | 215 | 1.0 | 3.0 | 0.00 | 0.00 | 0.00 | 99 | 1009.1 |
| 20260505051121 | 54 | 190 | 1.0 | 3.0 | 0.00 | 0.00 | 0.00 | 98 | 1009.2 |
| 20260505050123 | 54 | 215 | 1.0 | 3.0 | 0.00 | 0.00 | 0.00 | 97 | 1009.2 |
| 20260505041121 | 57 | 237 | 1.0 | 3.0 | 0.00 | 0.00 | 0.00 | 87 | 1009.4 |
| 20260505040121 | 57 | 244 | 2.0 | 3.0 | 0.00 | 0.00 | 0.00 | 86 | 1009.4 |
| 20260505035142 | 57 | 244 | 2.0 | 6.0 | 0.00 | 0.00 | 0.00 | 85 | 1009.4 |
| 20260505034125 | 57 | 236 | 3.0 | 6.0 | 0.00 | 0.00 | 0.00 | 85 | 1009.2 |
| 20260505033123 | 58 | 245 | 3.0 | 5.0 | 0.00 | 0.00 | 0.00 | 85 | 1009.2 |
| 20260505032143 | 57 | 232 | 3.0 | 5.0 | 0.00 | 0.00 | 0.00 | 85 | 1009.5 |
| 20260505031123 | 58 | 197 | 3.0 | 6.0 | 0.00 | 0.00 | 0.00 | 85 | 1009.5 |
| 20260505030121 | 57 | 230 | 3.0 | 5.0 | 0.00 | 0.00 | 0.00 | 86 | 1009.5 |
| 20260505025121 | 57 | 230 | 2.0 | 5.0 | 0.00 | 0.00 | 0.00 | 87 | 1009.6 |